Regional Weather Roundup
Issued by NWS Kansas City/Pleasant Hill, MO

Home | Current Version | Previous Version | Graphics & Text | Print | Product List | Glossary Off
Versions: 1 2 3 4 5 6 7 8 9 10 11 12 13 14 15 16 17 18 19 20 21 22 23 24 25 26 27 28 29 30 31 32 33 34 35 36 37 38 39 40 41 42 43 44 45 46 47 48 49 50

219
ASUS43 KEAX 210010
RWREAX

WEATHER ROUNDUP FOR EASTERN KANSAS AND NORTHWEST MISSOURI
NATIONAL WEATHER SERVICE KANSAS CITY/PLEASANT HILL MO
700 PM CDT WED SEP 20 2017

KSZ040-057-103>105-MOZ028-029-037-043-210100-
...KANSAS CITY METROPOLITAN AREA...

CITY           SKY/WX    TMP DP  RH WIND       PRES   REMARKS
K.C. INTL      MOCLDY    83  75  77 SE3       29.82R HX  90
6HR MIN TEMP:  83; 6HR MAX TEMP:  87;

K.C. DOWNTOWN  CLOUDY    86  75  69 SW5       29.80R HX  95
6HR MIN TEMP:  86; 6HR MAX TEMP:  89;

LEES SUMMIT    CLOUDY    86  75  69 S6        29.83R HX  95
6HR MIN TEMP:  84; 6HR MAX TEMP:  90;

OLATHE - IXD   MOCLDY    84  74  71 SE5       29.82R HX  91
6HR MIN TEMP:  83; 6HR MAX TEMP:  88;

OLATHE - OJC   CLOUDY    84  76  76 S5        29.82R HX  93
6HR MIN TEMP:  82; 6HR MAX TEMP:  86;

LAWRENCE       MOCLDY    84  75  74 SE3       29.80R HX  92

$$

MOZ001>008-011>017-020>025-030>033-038>040-044>046-053-054-210100-
...NORTHERN AND CENTRAL MISSOURI...

CITY           SKY/WX    TMP DP  RH WIND       PRES   REMARKS
ST. JOSEPH     MOCLDY    84  74  71 S6        29.81R HX  91
6HR MIN TEMP:  84; 6HR MAX TEMP:  90;

MOSBY          MOCLDY    82  73  74 CALM      29.82R
WARRENSBURG    PTCLDY    82  72  69 CALM      29.83R
WHITEMAN AFB   PTCLDY    83  79  87 S7        29.82R HX  95
6HR MIN TEMP:  83; 6HR MAX TEMP:  91;

CLINTON        CLEAR     84  73  70 S6        29.83S HX  91
SEDALIA        CLEAR     85  75  72 S7        29.85R HX  93
6HR MIN TEMP:  85; 6HR MAX TEMP:  93;

WARSAW         NOT AVBL
CHILLICOTHE      N/A     83  78  85 CALM      29.83R HX  93
6HR MIN TEMP:  83; 6HR MAX TEMP:  89;

KIRKSVILLE     PTCLDY    85  72  65 S5        29.84R HX  91
6HR MIN TEMP:  85; 6HR MAX TEMP:  92;


$$

MOZ041-047>049-056>058-063>065-088>090-097-210100-
...EASTERN AND SOUTHERN MISSOURI...

CITY           SKY/WX    TMP DP  RH WIND       PRES   REMARKS
ST. LOUIS INTL NOT AVBL
SPIRIT OF STL  CLEAR     89  70  53 S5        29.86R HX  94
COLUMBIA       CLEAR     84  71  65 S9        29.86R
JEFFERSON CITY CLEAR     88  69  53 SE8       29.84R HX  92
ROLLA          CLEAR     85  67  54 S7        29.90S
OSAGE BEACH    CLEAR     86  72  62 SE3       29.87R HX  92
SPRINGFIELD    CLEAR     85  70  60 S8        29.87S
BRANSON        PTCLDY    86  68  54 CALM      29.92R
JOPLIN         CLEAR     87  72  60 SE8G17    29.84R HX  93
WEST PLAINS    CLEAR     85  69  58 SE7       29.94R

$$

IAZ060-094-KSZ022-034>040-054-083-096-NEZ052-066-093-210100-
...KANSAS...SOUTHEAST NEBRASKA AND IOWA...

CITY           SKY/WX    TMP DP  RH WIND       PRES   REMARKS
TOPEKA         MOCLDY    85  74  69 SE3       29.80R HX  92
6HR MIN TEMP:  85; 6HR MAX TEMP:  90; 6HR PCP: TRACE;

MANHATTAN      CLEAR     85  66  53 N3        29.79S
EMPORIA        CLOUDY    85  71  63 CALM      29.80R HX  90
CHANUTE        MOCLDY    87  73  62 S9        29.81R HX  94
WICHITA        PTCLDY    88  69  53 S10       29.78S HX  92
OMAHA          CLEAR     75  52  44 N6        29.85R
LINCOLN        CLEAR     75  52  44 NE8       29.87R
FALLS CITY     CLEAR     80  64  58 N3        29.81S
LAMONI         CLEAR     81  71  71 S7        29.83R
DES MOINES     PTCLDY    81  61  50 N6        29.82R

$$





USA.gov is the U.S. government's official web portal to all federal, state and local government web resources and services.